Aurora, NE

11:40 AM CDT on April 23, 2018 (GMT -0500)
Aurora Municipal

Weather History for KAUH - December, 2013

Change the Weather History Date:

Wednesday, December 11, 2013

  Actual Average Record
Temperature  
Mean Temperature 14 °F -  
Max Temperature 27 °F 38 °F 63 °F (1990)
Min Temperature 1 °F 17 °F -9 °F (2000)
Degree Days  
Heating Degree Days 51    
Moisture  
Dew Point 5 °F    
Average Humidity 72    
Maximum Humidity 86    
Minimum Humidity 54    
Precipitation  
Precipitation 0.00 in - - ()
Sea Level Pressure  
Sea Level Pressure 30.47 in    
Wind  
Wind Speed 13 mph (WSW)    
Max Wind Speed 26 mph    
Max Gust Speed 36 mph    
Visibility 10 miles    
Events Snow    
Averages and records for this station are not official NWS values.
T = Trace of Precipitation, MM = Missing Value Source: NWS Daily Summary

Daily Weather History Graph

Daily Weather History Graph

Search for Another Location

Airport or City:

Astronomy

Dec. 11, 2013 Rise Set
Actual Time 7:46 AM CST 5:04 PM CST
Civil Twilight 7:15 AM CST 5:35 PM CST
Nautical Twilight 6:41 AM CST 6:09 PM CST
Astronomical Twilight 6:07 AM CST 6:42 PM CST
Moon 1:40 PM CST (12/11) 2:07 AM CST (12/11)
Length of Visible Light 10h 19m
Length of Day
9h 17m
Waxing Gibbous, 72% of the Moon is Illuminated
Dec 11
Waxing Gibbous
Dec 17
Full
Dec 25
Last Quarter
Jan 1
New
Jan 7
First Quarter

Hourly Weather History & Observations

Time (CST) Temp. Windchill Dew Point Humidity Pressure Visibility Wind Dir Wind Speed Gust Speed Precip Events Conditions
12:15 AM 27.0 °F 13.5 °F 20.7 °F 77% 30.28 in 10.0 mi North 19.6 mph 27.6 mph N/A   Mostly Cloudy
12:35 AM 26.2 °F 10.9 °F 19.8 °F 76% 30.29 in 10.0 mi North 25.3 mph 35.7 mph N/A   Mostly Cloudy
12:55 AM 24.8 °F 8.7 °F 19.0 °F 79% 30.30 in 10.0 mi North 26.5 mph 31.1 mph N/A   Mostly Cloudy
1:15 AM 23.2 °F 7.8 °F 17.6 °F 79% 30.31 in 10.0 mi North 21.9 mph 28.8 mph N/A   Scattered Clouds
1:35 AM 22.5 °F 6.5 °F 16.7 °F 79% 30.32 in 10.0 mi North 23.0 mph 28.8 mph N/A   Scattered Clouds
1:55 AM 21.7 °F 7.5 °F 16.7 °F 81% 30.33 in 10.0 mi North 17.3 mph 25.3 mph N/A   Scattered Clouds
2:15 AM 21.9 °F 7.8 °F 16.2 °F 78% 30.35 in 10.0 mi North 17.3 mph - N/A   Scattered Clouds
2:35 AM 22.1 °F 7.6 °F 16.0 °F 77% 30.37 in 10.0 mi North 18.4 mph 26.5 mph N/A   Scattered Clouds
2:55 AM 21.0 °F 6.2 °F 14.0 °F 74% 30.38 in 10.0 mi North 18.4 mph - N/A   Scattered Clouds
3:15 AM 20.7 °F 7.6 °F 14.0 °F 75% 30.39 in 10.0 mi North 13.8 mph - N/A   Scattered Clouds
3:35 AM 19.2 °F 3.0 °F 13.6 °F 79% 30.41 in 10.0 mi NNW 20.7 mph - N/A   Scattered Clouds
3:55 AM 16.9 °F 0.8 °F 12.0 °F 81% 30.41 in 10.0 mi North 18.4 mph - N/A   Clear
4:15 AM 15.6 °F 1.2 °F 11.1 °F 82% 30.42 in 10.0 mi North 13.8 mph - N/A   Clear
4:35 AM 14.7 °F 0.1 °F 9.7 °F 80% 30.42 in 10.0 mi North 13.8 mph 21.9 mph N/A   Clear
4:55 AM 12.7 °F -2.5 °F 8.1 °F 82% 30.44 in 10.0 mi NNE 13.8 mph - N/A   Clear
5:15 AM 10.4 °F -0.4 °F 5.9 °F 82% 30.46 in 10.0 mi North 6.9 mph - N/A   Scattered Clouds
5:35 AM 11.3 °F -2.9 °F 6.6 °F 81% 30.48 in 10.0 mi NNE 11.5 mph - N/A   Overcast
5:55 AM 9.5 °F -4.4 °F 4.8 °F 81% 30.48 in 10.0 mi NNE 10.4 mph - N/A   Mostly Cloudy
6:15 AM 7.0 °F -4.5 °F 2.7 °F 82% 30.49 in 10.0 mi NE 6.9 mph - N/A   Scattered Clouds
6:35 AM 5.9 °F -8.9 °F 1.8 °F 83% 30.50 in 10.0 mi NNE 10.4 mph - N/A   Clear
6:55 AM 5.0 °F -8.1 °F 0.5 °F 82% 30.51 in 10.0 mi NNE 8.1 mph - N/A   Clear
7:15 AM 3.2 °F - -0.9 °F 83% 30.53 in 10.0 mi Calm Calm - N/A   Clear
7:35 AM 3.6 °F - -0.6 °F 83% 30.53 in 10.0 mi Calm Calm - N/A   Clear
7:55 AM 3.6 °F -3.8 °F -0.6 °F 83% 30.54 in 10.0 mi NNW 3.5 mph - N/A   Clear
8:15 AM 1.2 °F -8.5 °F -2.7 °F 83% 30.56 in 7.0 mi NW 4.6 mph - N/A   Clear
8:35 AM 1.2 °F - -2.2 °F 86% 30.56 in 2.0 mi Calm Calm - N/A Snow Light Snow
8:55 AM 1.8 °F - -2.0 °F 84% 30.58 in 2.0 mi Calm Calm - N/A Snow Light Snow
9:15 AM 3.9 °F - 0.3 °F 85% 30.58 in 7.0 mi Calm Calm - N/A   Clear
9:35 AM 5.2 °F -1.9 °F 1.2 °F 84% 30.59 in 7.0 mi WSW 3.5 mph - N/A   Clear
9:55 AM 7.7 °F -3.7 °F 0.9 °F 74% 30.60 in 10.0 mi NW 6.9 mph - N/A   Clear
10:15 AM 8.4 °F -2.8 °F 0.5 °F 70% 30.60 in 10.0 mi NW 6.9 mph - N/A   Clear
10:35 AM 9.1 °F -4.0 °F 0.9 °F 69% 30.61 in 10.0 mi NW 9.2 mph - N/A   Clear
10:55 AM 9.9 °F -2.2 °F 0.5 °F 66% 30.61 in 10.0 mi NW 8.1 mph - N/A   Clear
11:15 AM 10.8 °F 0.0 °F -0.6 °F 60% 30.61 in 10.0 mi WNW 6.9 mph - N/A   Clear
11:35 AM 11.1 °F 1.7 °F -1.3 °F 57% 30.60 in 10.0 mi NW 5.8 mph - N/A   Clear
11:55 AM 11.7 °F 3.7 °F -1.5 °F 56% 30.59 in 10.0 mi NW 4.6 mph - N/A   Clear
12:15 PM 12.2 °F - -1.3 °F 55% 30.58 in 10.0 mi Calm Calm - N/A   Clear
12:35 PM 12.9 °F - -0.2 °F 56% 30.58 in 10.0 mi Calm Calm - N/A   Clear
12:55 PM 13.8 °F 8.0 °F -0.2 °F 54% 30.56 in 10.0 mi West 3.5 mph - N/A   Clear
1:15 PM 14.5 °F 5.7 °F 0.5 °F 54% 30.56 in 10.0 mi WSW 5.8 mph - N/A   Clear
1:35 PM 15.3 °F 4.4 °F 1.9 °F 56% 30.55 in 10.0 mi SSW 8.1 mph - N/A   Clear
1:55 PM 15.4 °F 5.6 °F 2.3 °F 56% 30.54 in 10.0 mi SSW 6.9 mph - N/A   Clear
2:15 PM 15.8 °F 6.1 °F 3.0 °F 57% 30.53 in 10.0 mi SSW 6.9 mph - N/A   Clear
2:35 PM 16.7 °F 6.2 °F 3.6 °F 56% 30.51 in 10.0 mi SW 8.1 mph - N/A   Clear
2:55 PM 17.4 °F 6.2 °F 4.1 °F 56% 30.51 in 10.0 mi SSW 9.2 mph - N/A   Clear
3:15 PM 17.6 °F 5.7 °F 4.5 °F 56% 30.51 in 10.0 mi SSW 10.4 mph - N/A   Clear
3:35 PM 17.2 °F 6.0 °F 5.4 °F 60% 30.50 in 10.0 mi SSW 9.2 mph - N/A   Clear
3:55 PM 16.7 °F 3.2 °F 5.4 °F 61% 30.49 in 10.0 mi SSW 12.7 mph - N/A   Clear
4:15 PM 16.3 °F 3.4 °F 5.9 °F 64% 30.49 in 10.0 mi SSW 11.5 mph - N/A   Clear
4:35 PM 15.6 °F 2.5 °F 5.4 °F 64% 30.48 in 10.0 mi SSW 11.5 mph - N/A   Clear
4:55 PM 14.9 °F 5.0 °F 4.6 °F 64% 30.47 in 10.0 mi South 6.9 mph - N/A   Clear
5:15 PM 14.2 °F 3.1 °F 4.1 °F 64% 30.47 in 10.0 mi South 8.1 mph - N/A   Clear
5:35 PM 13.5 °F -0.9 °F 3.9 °F 66% 30.47 in 10.0 mi SSW 12.7 mph - N/A   Clear
5:55 PM 12.9 °F -0.2 °F 3.7 °F 67% 30.46 in 10.0 mi SSW 10.4 mph - N/A   Clear
6:15 PM 13.1 °F 1.8 °F 3.2 °F 65% 30.46 in 10.0 mi South 8.1 mph - N/A   Clear
6:35 PM 12.4 °F -1.6 °F 3.0 °F 66% 30.45 in 10.0 mi SSW 11.5 mph - N/A   Clear
6:55 PM 12.6 °F 0.2 °F 3.2 °F 66% 30.45 in 10.0 mi South 9.2 mph - N/A   Clear
7:15 PM 12.2 °F -2.5 °F 3.6 °F 68% 30.44 in 10.0 mi SSW 12.7 mph - N/A   Clear
7:35 PM 11.5 °F -3.4 °F 3.7 °F 71% 30.44 in 10.0 mi SSW 12.7 mph - N/A   Clear
7:55 PM 11.3 °F -4.3 °F 3.9 °F 72% 30.44 in 10.0 mi SSW 13.8 mph - N/A   Clear
8:15 PM 11.3 °F -2.2 °F 4.1 °F 73% 30.44 in 10.0 mi SSW 10.4 mph - N/A   Clear
8:35 PM 11.1 °F -1.6 °F 3.9 °F 73% 30.44 in 10.0 mi SSW 9.2 mph - N/A   Clear
8:55 PM 11.1 °F -0.6 °F 4.1 °F 73% 30.43 in 10.0 mi South 8.1 mph - N/A   Clear
9:15 PM 10.4 °F -1.5 °F 3.9 °F 75% 30.42 in 10.0 mi South 8.1 mph - N/A   Clear
9:35 PM 10.2 °F -1.7 °F 3.7 °F 75% 30.42 in 10.0 mi South 8.1 mph - N/A   Clear
9:55 PM 9.9 °F -3.1 °F 3.7 °F 76% 30.41 in 10.0 mi South 9.2 mph - N/A   Clear
10:15 PM 10.4 °F -1.5 °F 4.1 °F 76% 30.41 in 10.0 mi South 8.1 mph - N/A   Clear
10:35 PM 11.3 °F -2.2 °F 4.8 °F 75% 30.41 in 10.0 mi SSW 10.4 mph - N/A   Clear
10:55 PM 12.2 °F -1.8 °F 5.5 °F 75% 30.40 in 10.0 mi SSW 11.5 mph - N/A   Clear
11:15 PM 12.2 °F -1.0 °F 5.9 °F 76% 30.39 in 10.0 mi SSW 10.4 mph - N/A   Clear
11:35 PM 13.5 °F -0.9 °F 7.0 °F 75% 30.39 in 10.0 mi SW 12.7 mph - N/A   Clear
11:55 PM 14.7 °F -1.1 °F 7.9 °F 74% 30.38 in 10.0 mi SW 16.1 mph - N/A   Clear